Regional Weather Roundup
Issued by NWS Cleveland, OH

Home | Current Version | Previous Version | Text Only | Print | Product List | Glossary Off
Versions: 1 2 3 4 5 6 7 8 9 10 11 12 13 14 15 16 17 18 19 20 21 22 23 24 25 26 27 28 29 30 31 32 33 34 35 36 37 38 39 40 41 42 43 44 45 46 47 48 49 50

000
ASUS41 KCLE 010810
RWRCLE
OHIO REGIONAL WEATHER ROUNDUP
NATIONAL WEATHER SERVICE CLEVELAND, OH
400 AM EDT SUN MAY 01 2016

NOTE: "FAIR" INDICATES FEW OR NO CLOUDS BELOW 12,000 FEET WITH NO
SIGNIFICANT WEATHER AND/OR OBSTRUCTIONS TO VISIBILITY.

OHZ001>008-015>018-024>027-034-035-043-044-010900-
   NORTHWEST OHIO

CITY           SKY/WX    TMP DP  RH WIND       PRES   REMARKS
DEFIANCE       CLOUDY    51  48  89 NE7       29.88R FOG
FINDLAY        CLOUDY    55  51  86 N3        29.85S FOG
TOLEDO EXPRESS CLOUDY    48  48 100 E8        29.88S FOG
TOLEDO EXEC    CLOUDY    49  47  93 NE8       29.89S FOG
LIMA           CLOUDY    59  58  96 SW8       29.86S FOG
$$

OHZ009>014-019>023-028>033-038-089-010900-
   NORTHEAST OHIO

CITY           SKY/WX    TMP DP  RH WIND       PRES   REMARKS
CLE-HOPKINS    CLOUDY    57  55  93 W9        29.90R
CLE-LAKEFRONT  CLOUDY    51  50  96 NE7       29.87R FOG
CUY CO. ARPT   NOT AVBL
LORAIN-ELYRIA  CLOUDY    55  53  93 SW6       29.87R
ASHTABULA      LGT RAIN  52  51  97 NW3       29.90S
AKRON-CANTON   LGT RAIN  57  55  93 SW7       29.89F VSB 1
WOOSTER        LGT RAIN  56  55  97 SW7       29.89S FOG
MANSFIELD      CLOUDY    57  57 100 S8        29.87F
YOUNGSTOWN     CLOUDY    53  52  96 SE8       29.90S
$$

OHZ042-051>053-060>062-070>072-077>081-010900-
  SOUTHWEST OHIO

CITY           SKY/WX    TMP DP  RH WIND       PRES   REMARKS
CINC-COVINGTON MOCLDY    61  61 100 SW7       29.89F
CINC-LUNKEN    LGT RAIN  61  61 100 CALM      29.90S
HAMILTON       LGT RAIN  61  60  97 SW5       29.89S
DAYTON         CLOUDY    60  59  96 SW9       29.89R FOG
WRIGHT-PAT AFB CLOUDY    61  61 100 W8        29.88S FOG
DAYTON GENERAL CLOUDY    61  58  90 SW10      29.87F
WILMINGTON     LGT RAIN  60  59  96 SW9       29.87F
$$

OHZ036-037-039>041-045>050-054>059-063>069-073>076-082>088-010900-
  CENTRAL AND SOUTHEAST OHIO

CITY           SKY/WX    TMP DP  RH WIND       PRES   REMARKS
COLUMBUS       CLOUDY    57  57 100 S6        29.89S FOG
OSU AIRPORT    CLOUDY    59  58  96 S7        29.88F FOG
BOLTON FIELD   CLOUDY    58  58 100 S8        29.89F
RICKENBACK AFB CLOUDY    58  57  99 SW5       29.90S FOG
NEWARK         CLOUDY    61  57  87 SW5       29.90R
MARION         CLOUDY    58  56  93 SW8       29.88S FOG
LANCASTER      CLOUDY    60  58  92 S3        29.91R
ZANESVILLE     CLOUDY    63  59  87 SW7       29.91S
NEW PHILLY     LGT RAIN  60  58  92 VRB3      29.90F
$$




USA.gov is the U.S. government's official web portal to all federal, state and local government web resources and services.